Dewpoint
3 3 3 3 2 3 2 -0 -2 -3 -8 -14 -18 -18 -20 -17 -17 -13 -6 -17 -13 -15 -14 -11 8 7 4 2 1 -0 3 2 -0 -5 -6 -10 -8 -8 -8 -5 -5 -5 -3 -2 9
3 2 2 2 2 2 2 -1 -1 -2 -5 -8 -13 -10 -3 -8 -10 -22 -20 -18 -14 -15 -11 -5 5 7 4 2 1 3 4 1 -3 -8 -8 -6 -8 -6 -5 -4 -4 -4 -2 6 9
2 2 2 2 2 1 -0 -3 -8 -11 -13 -13 -8 -5 2 -4 -4 -15 -12 -14 -11 -6 -11 -7 -1 6 4 2 2 2 3 -2 -5 -6 -5 -5 -5 -6 -5 -2 -3 -4 -3 8 8
2 2 2 1 -0 -2 -4 -4 -6 -8 -11 -13 -8 -3 4 0 -3 -6 -11 -12 -14 2 -7 -1 -1 5 4 3 1 2 -0 -2 -5 -4 -4 -3 -4 -5 -5 -3 -4 -4 -3 5 9
1 1 0 -1 -5 -10 -15 -15 -11 -6 -5 -7 -0 3 3 3 -0 -12 -11 -12 -3 0 -7 -1 0 3 3 2 -0 1 -1 -2 -3 -2 -3 -4 -3 -3 -4 -3 -4 -4 -3 -1 6
0 -0 -6 -20 -29 -30 -29 -27 -21 -13 -13 -10 2 3 3 1 -6 -6 -7 -5 -5 -3 -3 -1 1 1 2 0 -0 -1 -0 -1 -3 -1 -2 -2 -1 -1 -3 -3 -2 -2 -1 -2 1
-0 -1 -9 -27 -29 -30 -30 -29 -32 -32 -30 -16 1 3 3 -1 -4 -3 -3 -1 5 4 4 -1 -0 -1 1 0 -2 -2 -1 -2 -2 -3 -1 -2 0 -0 -4 -3 -1 -2 -1 -0 -1
-1 -2 -17 -26 -25 -27 -26 -23 -23 -22 -22 -17 -1 2 2 -3 -1 -0 -2 -3 0 4 4 4 1 -0 -0 -1 -3 -2 -2 1 -2 -2 -1 -0 0 -1 -3 -4 -4 -2 -1 -0 0
-1 -4 -23 -27 -25 -24 -25 -28 -19 -11 -5 3 3 2 0 -0 -0 0 0 -1 -3 0 4 4 2 2 1 2 1 -1 2 1 -1 -3 -1 0 -1 -5 -4 -4 -3 -4 -3 -2 -1
-2 -16 -28 -28 -19 -12 -13 -20 -3 3 2 2 3 3 0 -0 -1 -2 -0 1 -0 -4 4 4 3 3 3 3 5 2 1 -2 -2 -5 -3 0 0 -2 -3 -5 -5 -4 -3 -3 -2
-8 -28 -26 -25 -20 -12 -7 -16 -14 0 -1 -4 -6 -1 -3 -4 -4 -2 -1 1 1 -3 6 4 5 6 4 2 1 -0 -1 -2 -7 -8 -2 -1 0 -1 -1 -3 -3 -4 -3 -4 -4
-6 -21 -26 -25 -15 -11 -7 -9 -7 -6 -6 -9 -6 -6 -9 -7 -8 -4 -3 -2 0 -1 0 5 6 3 2 2 3 1 -1 -5 -5 -8 -2 -1 -2 -2 -1 -2 -3 -4 -5 -5 -4
-21 -24 -23 -25 -14 -14 -7 -5 -5 -5 -5 -3 -8 -6 -11 -13 -7 -1 -2 -2 -2 1 -2 5 2 1 2 3 3 2 2 -1 -5 -2 -3 -3 -2 -3 -3 -4 -5 -5 -5 -5 -3
-25 -24 -21 -18 -12 -10 -10 -9 -6 -5 -2 -8 -14 -12 -14 -14 -5 -4 -5 -2 -1 -2 1 2 2 1 2 2 0 2 -1 -1 -1 1 3 -2 1 -3 -4 -3 -6 -6 -7 -5 -4
-24 -20 -14 -9 -8 -9 -7 -6 -7 -4 -1 -12 -16 -17 -18 -16 -8 -8 -5 -4 0 -0 -1 2 0 2 3 4 0 1 -1 -0 0 0 1 0 2 -3 -4 -3 -6 -8 -8 -8 -6
-19 -18 -15 -13 -11 -10 -8 -7 -3 -1 -4 -9 -17 -17 -17 -19 -12 -12 -6 -8 -4 -4 -3 -0 -2 3 3 0 0 -0 -0 -1 2 3 6 0 1 0 -1 -4 -8 -8 -9 -10 -9
-19 -18 -15 -14 -12 -13 -10 -3 -3 -4 -15 -13 -14 -17 -16 -17 -14 -10 -7 -6 -5 -4 -0 -2 -1 -0 1 4 1 1 4 6 6 6 5 1 2 -5 -8 -9 -9 -10 -11 -12 -12
-15 -18 -17 -15 -17 -16 -14 -12 -8 -13 -13 -15 -17 -17 -16 -18 -16 -5 -7 -7 -9 -6 -4 -1 2 -1 -2 -1 2 4 4 5 5 5 5 2 4 -6 -10 -12 -12 -13 -13 -13 -13
-15 -21 -17 -16 -15 -18 -15 -8 -9 -11 -14 -14 -16 -15 -15 -17 -15 -9 -8 -8 -9 -9 -4 -2 -1 -2 -3 -3 -2 3 6 -0 -1 -3 1 -0 -2 -9 -10 -10 -12 -13 -14 -14 -14
-16 -19 -15 -15 -16 -16 -13 -10 -10 -14 -14 -15 -13 -13 -12 -14 -14 -11 -8 -10 -11 -12 -8 -3 -3 -3 -5 -8 -6 -4 -3 5 3 3 5 1 -1 -3 -7 -8 -10 -11 -12 -12 -13
-18 -18 -16 -15 -16 -15 -9 -11 -14 -14 -14 -13 -13 -12 -12 -12 -13 -11 -9 -10 -13 -13 -11 -4 -3 -4 -7 -5 -7 -7 -7 -6 0 3 2 1 -3 -5 -5 -6 -7 -11 -11 -12 -12
-14 -11 -15 -15 -13 -15 -12 -13 -14 -13 -14 -13 -14 -12 -12 -11 -13 -13 -11 -11 -13 -14 -9 -8 -3 -3 -4 -5 -6 -8 -8 -6 -3 5 0 -3 -6 -6 -6 -9 -10 -11 -12 -10 -11
-14 -13 -14 -15 -10 -11 -14 -14 -14 -12 -13 -12 -13 -13 -13 -13 -11 -12 -14 -16 -15 -13 -7 -11 -6 -3 -4 -6 -12 -8 -9 -8 -4 -2 -7 -4 -7 -9 -10 -11 -13 -13 -13 -13 -12
-14 -10 -12 -14 -14 -10 -10 -12 -13 -13 -13 -13 -13 -13 -12 -12 -15 -12 -13 -16 -18 -14 -11 -11 -10 -10 -8 -8 -10 -9 -10 -10 -6 -7 -9 -9 -9 -10 -10 -11 -14 -14 -14 -13 -13
-11 -11 -12 -11 -13 -13 -11 -12 -12 -11 -13 -13 -11 -11 -13 -9 -12 -14 -16 -17 -18 -18 -14 -12 -8 -9 -9 -10 -12 -12 -10 -10 -10 -8 -10 -10 -10 -10 -11 -13 -14 -14 -14 -13 -12
-11 -8 -12 -13 -13 -12 -11 -11 -11 -12 -12 -11 -9 -10 -14 -12 -12 -12 -16 -18 -16 -18 -14 -9 -7 -14 -13 -17 -16 -13 -13 -12 -12 -11 -10 -10 -11 -10 -11 -15 -14 -14 -14 -14 -13
-8 -9 -11 -13 -11 -10 -11 -12 -12 -12 -12 -12 -11 -10 -9 -9 -12 -14 -15 -15 -19 -17 -14 -11 -10 -11 -9 -15 -18 -14 -14 -10 -11 -11 -11 -11 -11 -11 -12 -12 -14 -14 -14 -13 -12
Wind_Speed
19 19 19 20 20 20 19 19 18 18 18 18 18 19 19 21 23 23 30 24 16 15 12 16 18 16 16 17 20 15 4 8 11 13 8 11 7 6 14 18 12 12 5 12 27
18 21 21 22 21 21 21 21 20 19 18 18 18 17 17 19 22 32 32 28 24 18 22 23 25 23 21 20 13 8 6 8 9 6 5 8 7 12 3 14 10 16 10 24 24
22 22 23 24 24 23 23 22 22 21 21 19 17 15 14 14 17 19 14 16 27 28 24 23 21 26 18 18 22 14 10 15 17 2 8 7 3 15 7 6 14 22 18 20 19
24 25 25 25 25 25 24 23 23 22 20 20 17 14 10 4 7 4 7 8 11 26 27 26 28 26 15 15 28 9 24 24 16 5 5 2 3 5 12 3 13 21 20 21 21
24 25 26 27 27 27 27 26 25 23 21 19 14 10 7 9 23 18 18 10 11 19 35 32 32 30 14 17 20 23 16 21 31 5 5 6 6 7 16 8 4 22 23 23 21
26 26 27 25 24 24 26 27 28 26 23 19 12 9 11 10 10 12 14 15 17 18 32 32 27 36 18 17 21 12 28 25 18 13 9 6 8 11 10 11 12 16 18 24 21
26 27 28 26 25 25 24 25 25 24 22 18 12 13 18 28 12 9 7 9 12 20 28 36 30 27 29 11 30 25 9 16 20 13 5 14 10 9 19 15 18 15 17 17 19
28 28 29 29 28 28 23 23 25 22 17 15 14 14 15 13 13 20 22 22 21 24 28 25 30 24 23 25 12 18 13 15 12 14 7 14 4 18 29 22 16 22 22 19 17
29 31 32 32 30 30 25 22 18 14 3 2 9 13 9 6 3 8 9 18 19 23 22 29 25 30 18 15 7 13 14 22 9 20 8 9 4 11 12 26 21 19 19 19 17
31 33 33 32 30 27 25 15 5 5 2 3 3 8 8 11 18 20 9 11 18 18 22 28 18 15 19 16 23 15 17 11 19 14 20 15 9 4 9 12 13 11 10 12 14
32 33 30 32 28 20 26 15 8 4 1 6 9 16 21 18 13 10 13 12 13 22 22 25 16 25 37 30 18 19 17 22 12 14 19 19 14 8 10 10 10 12 12 12 8
32 32 30 30 19 20 17 9 7 8 9 11 8 3 14 16 16 11 14 10 9 18 17 16 26 33 19 18 19 22 18 18 13 12 14 14 13 10 11 8 14 15 13 10 7
32 31 28 28 10 18 12 9 10 7 6 7 12 9 18 17 10 16 15 12 12 16 22 23 22 20 19 21 25 26 26 18 10 6 2 5 7 13 8 19 20 16 12 11 9
29 29 28 27 8 20 7 21 15 1 3 6 18 10 21 18 1 8 13 6 5 14 14 16 27 20 29 24 22 24 24 16 18 8 5 7 4 12 11 13 11 17 16 13 11
27 26 28 24 17 18 21 18 6 4 2 8 17 16 20 18 11 10 15 4 9 12 7 7 14 19 26 25 24 24 11 22 18 8 6 10 3 8 14 11 11 11 15 14 14
23 27 27 29 23 22 20 10 3 2 5 8 18 15 14 19 8 15 14 13 3 7 9 18 13 6 8 23 20 21 9 13 4 9 11 13 10 4 8 15 9 13 15 15 15
22 27 22 27 33 26 19 5 1 6 10 13 19 15 12 13 11 12 12 13 11 8 4 10 19 2 5 5 18 14 11 6 9 7 11 18 11 7 12 15 14 12 16 16 17
19 22 19 25 30 22 15 8 10 14 15 17 14 15 12 14 12 12 11 9 10 9 5 5 3 7 6 3 5 24 17 5 13 12 7 12 7 8 14 19 19 19 18 18 19
14 23 25 29 27 22 16 11 6 8 13 16 14 11 11 15 11 8 8 8 6 10 5 5 1 2 10 5 4 4 17 21 1 4 9 8 6 11 12 12 14 17 18 18 18
12 13 28 22 24 16 12 16 7 12 11 15 14 11 14 16 12 8 10 11 12 15 11 2 5 8 6 9 10 5 7 12 9 15 8 5 6 9 10 8 10 10 16 17 18
11 6 28 19 19 19 10 11 9 19 16 12 12 9 14 13 12 8 7 6 15 18 12 6 4 6 6 7 19 7 5 6 5 4 10 6 3 6 10 9 9 11 15 16 17
18 4 31 14 12 10 10 11 12 14 16 12 12 10 11 14 6 11 12 10 19 19 13 7 3 4 6 11 8 16 10 4 3 9 5 4 4 7 8 11 11 12 13 13 17
6 10 25 23 6 8 12 13 10 12 13 10 11 11 15 8 5 13 15 17 21 15 10 12 5 1 5 3 11 9 21 12 4 3 4 4 5 8 11 12 13 14 13 15 17
5 4 10 20 19 10 7 12 11 10 9 16 9 10 14 10 13 9 15 11 20 23 13 9 10 12 9 9 9 10 21 24 10 3 9 10 12 12 11 11 14 13 16 19 20
7 5 5 7 10 12 6 8 12 10 14 19 8 14 11 6 9 11 16 10 12 25 13 4 7 15 14 15 21 20 22 21 24 14 6 11 14 10 11 10 14 15 19 20 22
5 4 5 15 15 13 10 10 11 10 6 9 10 13 6 4 2 4 8 11 9 11 11 4 4 9 11 12 21 22 22 21 18 20 12 12 13 8 14 13 14 19 21 22 24
13 8 4 14 12 5 10 9 8 9 4 11 10 9 7 5 9 11 14 12 8 11 9 7 1 5 1 3 5 10 19 15 15 16 10 12 6 14 13 15 18 21 23 23 25
Wind_Direction
346 340 338 332 328 326 321 316 313 309 303 298 293 292 291 288 285 278 262 261 255 236 220 193 181 192 203 214 217 218 240 237 238 236 254 115 146 191 204 151 153 170 66 166 164
335 340 337 331 326 323 320 315 311 309 306 301 294 292 293 292 290 275 279 272 251 226 201 191 187 190 204 212 216 207 227 225 250 253 235 140 186 160 181 136 156 159 140 146 163
342 340 335 332 328 324 318 313 308 304 301 298 297 293 295 303 306 281 283 259 238 221 212 202 194 189 206 208 208 219 233 234 265 295 8 120 225 169 184 214 177 173 166 159 170
342 337 333 329 326 321 316 311 305 301 297 293 291 290 284 287 256 278 288 266 228 211 201 199 198 189 203 210 212 241 224 247 261 207 126 272 190 222 191 160 195 186 187 171 171
338 336 333 330 327 322 317 311 304 298 293 288 285 278 266 236 247 274 275 287 208 204 192 196 203 198 200 209 215 217 243 227 244 154 196 255 247 232 206 215 154 180 184 181 179
339 335 335 333 328 322 315 307 301 298 289 280 271 253 231 244 243 249 263 264 249 219 199 196 207 205 223 252 206 206 228 244 251 185 179 209 236 250 242 200 168 166 173 182 185
339 338 339 339 337 334 326 317 307 299 289 268 254 235 240 233 217 216 243 226 235 231 207 202 206 205 222 249 244 225 261 219 233 215 210 200 249 237 221 200 175 187 182 177 190
340 340 341 342 337 335 328 327 316 307 286 265 240 225 245 267 281 276 273 257 223 216 224 223 220 231 223 230 277 219 228 232 213 200 189 156 241 208 222 217 200 196 191 202 205
341 341 344 343 339 333 328 331 312 314 306 297 194 198 261 302 328 310 282 264 246 234 222 220 226 232 237 233 230 227 218 225 235 198 151 166 200 226 190 197 199 201 197 200 207
341 343 344 347 340 335 345 354 8 51 91 105 324 193 270 336 320 317 303 267 242 226 227 212 214 217 227 214 214 195 214 231 214 196 199 183 224 113 128 158 164 157 165 169 177
342 341 345 352 342 355 0 6 8 185 183 316 314 293 318 333 345 332 308 297 240 236 209 204 204 210 211 215 218 207 198 214 221 197 182 200 197 197 144 146 131 141 134 102 102
343 347 349 355 355 0 6 54 44 331 314 335 341 343 345 339 322 327 350 327 237 231 210 206 220 220 216 210 228 231 230 225 211 226 178 193 209 198 161 152 119 95 78 70 56
352 353 354 355 353 354 353 6 337 331 263 49 11 10 353 334 336 353 359 323 283 264 230 220 229 228 220 216 214 220 225 231 229 115 43 165 210 204 186 112 100 92 88 73 62
359 1 358 1 20 0 5 323 323 240 268 8 14 7 344 340 139 18 356 348 284 261 252 257 240 234 218 231 227 227 219 227 240 152 184 177 232 194 174 123 103 88 80 71 55
4 6 9 2 349 345 320 327 346 201 38 5 0 351 354 10 343 26 14 355 300 310 305 255 256 234 239 225 228 240 220 208 227 223 135 186 129 231 159 131 111 83 71 58 46
15 14 7 13 13 352 340 337 13 256 38 1 353 345 359 6 4 359 21 13 277 303 267 259 273 320 284 241 233 238 231 238 226 233 231 192 179 204 154 145 110 85 64 49 41
26 16 17 19 0 353 349 345 33 38 354 345 341 346 11 4 358 20 21 35 34 340 355 303 250 264 360 274 225 219 165 177 200 206 210 199 192 78 63 75 91 85 62 46 38
33 10 30 26 21 4 0 54 55 5 2 339 348 5 10 2 356 43 9 31 18 26 300 335 157 1 8 354 300 198 197 178 190 198 174 172 201 118 90 79 75 68 56 42 33
38 16 39 32 32 43 62 61 41 4 346 341 358 4 11 2 356 19 24 22 357 10 355 327 297 31 50 329 22 280 203 211 245 164 195 118 74 85 104 90 78 66 52 37 27
24 14 26 23 33 49 56 77 60 23 357 359 4 355 6 0 353 24 358 15 6 358 1 335 286 7 46 12 6 357 335 196 225 196 181 105 135 149 121 83 68 52 41 30 24
28 36 1 24 47 46 52 49 30 27 6 11 3 352 358 348 350 19 15 1 12 352 336 341 282 38 67 53 35 352 24 325 293 199 194 131 96 26 64 57 38 35 31 24 22
37 55 0 41 45 54 39 21 22 13 10 8 10 356 350 330 336 8 16 14 10 354 339 352 301 51 84 119 99 54 14 288 291 178 46 73 102 44 52 53 39 27 19 17 18
57 78 32 46 35 30 34 28 52 9 21 356 8 8 341 351 351 21 11 355 28 352 11 353 13 232 152 323 19 36 8 349 210 287 40 109 120 60 40 43 34 24 15 17 12
48 27 11 32 46 29 7 23 22 31 360 1 11 11 349 359 30 6 3 351 25 359 48 64 44 71 86 80 50 36 21 18 49 33 81 60 84 40 27 22 19 13 21 14 10
52 54 28 11 31 29 39 13 16 10 357 20 4 9 17 349 0 9 4 346 357 3 355 81 90 99 106 95 66 44 36 27 44 35 58 104 67 24 18 9 8 24 14 9 6
77 39 39 55 24 35 12 9 11 355 7 3 358 340 40 46 68 330 6 17 29 340 347 351 130 135 131 111 72 49 30 41 33 33 41 67 63 12 4 7 30 21 10 6 3
80 80 63 29 32 25 15 1 358 347 40 6 355 337 11 5 308 307 321 338 35 3 347 354 294 199 167 322 54 31 15 30 52 40 27 41 17 6 5 3 44 23 11 4 360
Height
1497 1494 1491 1488 1485 1482 1479 1476 1474 1472 1470 1468 1467 1466 1465 1463 1462 1461 1454 1458 1460 1464 1465 1468 1473 1477 1482 1483 1484 1485 1486 1480 1474 1468 1461 1457 1462 1467 1469 1471 1475 1479 1481 1483 1488
1495 1492 1489 1485 1482 1479 1475 1473 1470 1468 1466 1464 1463 1462 1461 1459 1457 1450 1450 1452 1455 1459 1460 1462 1467 1474 1477 1479 1480 1480 1480 1470 1458 1455 1456 1457 1461 1466 1469 1470 1474 1479 1483 1485 1488
1493 1490 1487 1483 1479 1475 1472 1469 1467 1464 1462 1460 1459 1459 1458 1457 1456 1442 1443 1443 1445 1451 1456 1460 1465 1469 1473 1473 1473 1473 1468 1462 1457 1456 1458 1459 1462 1466 1468 1471 1471 1474 1480 1484 1487
1491 1488 1483 1479 1474 1470 1467 1464 1462 1460 1458 1456 1455 1455 1455 1458 1456 1442 1441 1440 1440 1444 1452 1457 1461 1464 1466 1465 1463 1466 1461 1462 1456 1456 1459 1462 1464 1464 1466 1468 1469 1474 1477 1483 1486
1490 1485 1480 1475 1470 1466 1462 1459 1456 1454 1453 1451 1452 1452 1453 1454 1440 1441 1440 1441 1440 1440 1442 1449 1454 1457 1457 1453 1457 1457 1456 1454 1456 1458 1461 1463 1464 1465 1464 1466 1467 1470 1475 1480 1485
1488 1482 1476 1471 1467 1462 1458 1454 1450 1448 1447 1446 1448 1450 1450 1448 1437 1436 1438 1438 1439 1439 1440 1444 1445 1449 1452 1450 1451 1448 1452 1452 1452 1454 1458 1463 1464 1465 1462 1465 1467 1469 1473 1478 1483
1486 1479 1473 1468 1463 1458 1453 1449 1445 1442 1440 1439 1442 1445 1443 1431 1433 1430 1432 1435 1437 1438 1438 1439 1443 1446 1449 1447 1445 1446 1450 1446 1446 1450 1454 1458 1463 1460 1461 1462 1465 1469 1473 1477 1482
1484 1477 1471 1465 1460 1454 1449 1445 1440 1436 1434 1434 1436 1440 1432 1429 1429 1430 1429 1428 1430 1432 1436 1439 1442 1442 1442 1443 1440 1441 1445 1448 1438 1446 1450 1456 1456 1451 1454 1458 1461 1465 1470 1475 1480
1481 1474 1468 1462 1456 1450 1445 1440 1435 1432 1430 1432 1435 1436 1431 1427 1426 1426 1426 1424 1425 1426 1429 1434 1437 1436 1440 1440 1444 1436 1439 1441 1442 1434 1443 1452 1450 1445 1444 1452 1458 1462 1467 1472 1477
1478 1471 1465 1459 1453 1447 1442 1435 1433 1432 1432 1434 1435 1438 1429 1428 1424 1423 1421 1421 1420 1422 1425 1426 1429 1430 1432 1430 1417 1431 1438 1435 1437 1431 1436 1446 1449 1445 1446 1449 1454 1458 1463 1468 1474
1475 1469 1463 1457 1450 1445 1440 1435 1436 1435 1433 1434 1436 1433 1429 1427 1425 1423 1420 1418 1416 1416 1413 1416 1420 1408 1395 1410 1419 1421 1423 1425 1421 1419 1428 1432 1444 1442 1447 1449 1453 1458 1463 1466 1470
1473 1466 1461 1456 1451 1447 1445 1443 1447 1449 1441 1433 1432 1433 1432 1428 1426 1424 1421 1420 1413 1410 1411 1413 1400 1387 1407 1413 1417 1421 1418 1414 1419 1415 1424 1432 1436 1439 1444 1449 1453 1458 1463 1467 1470
1471 1466 1460 1455 1451 1449 1447 1448 1447 1447 1444 1437 1437 1435 1434 1431 1427 1426 1425 1422 1416 1415 1404 1399 1387 1405 1407 1407 1411 1409 1415 1417 1418 1419 1424 1430 1440 1438 1442 1449 1454 1460 1465 1469 1472
1472 1466 1460 1454 1453 1451 1450 1448 1444 1445 1442 1443 1440 1438 1434 1429 1427 1430 1427 1427 1419 1406 1411 1399 1393 1394 1402 1402 1403 1405 1404 1415 1415 1430 1444 1430 1449 1436 1436 1449 1455 1461 1466 1471 1473
1473 1468 1462 1455 1455 1453 1451 1446 1444 1446 1438 1447 1444 1442 1438 1435 1433 1430 1428 1426 1422 1416 1411 1397 1390 1392 1393 1396 1399 1393 1401 1406 1414 1420 1429 1433 1451 1425 1428 1449 1457 1465 1470 1472 1473
1475 1469 1465 1459 1456 1453 1448 1445 1446 1445 1464 1458 1450 1443 1439 1437 1433 1431 1431 1430 1426 1420 1410 1402 1398 1404 1397 1389 1393 1397 1401 1404 1411 1417 1429 1421 1431 1435 1431 1442 1458 1468 1472 1474 1474
1477 1473 1467 1463 1458 1452 1448 1447 1448 1466 1463 1462 1452 1446 1441 1441 1435 1436 1437 1436 1440 1434 1412 1402 1395 1403 1406 1398 1387 1395 1405 1413 1420 1418 1408 1409 1427 1457 1450 1453 1461 1469 1474 1476 1476
1480 1477 1472 1467 1460 1453 1449 1452 1471 1473 1470 1463 1454 1449 1447 1444 1441 1447 1445 1444 1439 1439 1434 1420 1400 1413 1415 1412 1397 1387 1391 1394 1394 1400 1410 1408 1416 1455 1461 1464 1469 1472 1475 1476 1476
1482 1480 1474 1470 1465 1460 1458 1469 1483 1478 1472 1466 1458 1456 1454 1450 1446 1446 1448 1449 1443 1440 1445 1428 1415 1418 1420 1417 1414 1394 1379 1374 1381 1380 1399 1438 1466 1462 1466 1471 1474 1476 1478 1480 1478
1484 1483 1478 1477 1473 1470 1467 1475 1482 1479 1475 1470 1469 1465 1463 1457 1453 1451 1454 1451 1446 1442 1440 1436 1429 1420 1421 1418 1422 1421 1415 1387 1382 1381 1392 1435 1457 1462 1467 1475 1477 1480 1481 1482 1481
1487 1486 1485 1481 1480 1477 1479 1484 1482 1482 1479 1476 1474 1470 1468 1465 1458 1456 1461 1453 1449 1445 1438 1438 1432 1425 1423 1445 1450 1436 1430 1430 1403 1385 1373 1427 1473 1484 1482 1484 1484 1484 1484 1483 1482
1491 1492 1491 1485 1483 1484 1488 1488 1488 1486 1483 1481 1478 1474 1473 1468 1462 1459 1460 1457 1453 1451 1442 1437 1435 1432 1442 1449 1451 1458 1455 1446 1420 1378 1406 1423 1484 1489 1488 1487 1487 1488 1486 1484 1483
1495 1496 1497 1491 1494 1494 1495 1492 1491 1491 1488 1485 1482 1480 1475 1469 1468 1466 1466 1461 1458 1453 1448 1443 1445 1436 1446 1447 1449 1456 1461 1451 1429 1423 1451 1440 1486 1494 1493 1491 1489 1489 1488 1485 1483
1498 1501 1502 1500 1504 1503 1499 1498 1496 1495 1492 1490 1487 1482 1479 1474 1473 1474 1470 1466 1463 1458 1452 1452 1460 1459 1473 1482 1481 1476 1467 1457 1435 1454 1467 1480 1494 1498 1498 1494 1492 1491 1488 1486 1484
1503 1512 1511 1511 1506 1506 1504 1503 1501 1500 1497 1494 1489 1489 1488 1487 1482 1485 1479 1470 1468 1464 1457 1460 1474 1472 1480 1481 1477 1481 1478 1474 1469 1471 1476 1493 1496 1503 1501 1497 1494 1492 1490 1488 1485
1509 1512 1513 1513 1511 1510 1509 1508 1506 1504 1501 1498 1497 1493 1491 1495 1495 1494 1487 1481 1482 1473 1467 1461 1469 1470 1471 1468 1470 1484 1485 1486 1485 1482 1488 1487 1497 1505 1503 1498 1494 1496 1493 1490 1487
1515 1515 1516 1517 1517 1513 1514 1511 1509 1506 1502 1501 1499 1495 1492 1495 1494 1491 1489 1486 1484 1482 1476 1473 1471 1469 1470 1461 1459 1484 1497 1493 1497 1495 1499 1501 1507 1503 1502 1500 1499 1498 1496 1493 1489